Content
SEND FEEDBACK

Daily
Averages
Monthly
Summary
Germany

LEIPZIG, GERMANY


Home > Europe > Germany
Elevation: 486 feet     Latitude: 51 19N     Longitude: 012 25E

WEATHER
 
SELECT A DAY
Number of Records: 124,578;   Date Range: 3/20/99 - 12/18/14
 
SHARE

PRINT THIS DATA

[ ← Previous Day ]
WEATHER ALMANAC - JANUARY 31, 2013
[ Next Day → ]
[ °C ]   °F
Weather ElementAverageHighLow
Temperature42.7 °F48.2 °F (1:50 pm)35.6 °F (8:20 pm)
Dewpoint35.4 °F37.4 °F (12:20 am)33 °F (3:00 pm)
Humidity73.5 %93 % (8:20 pm)49 % (3:00 pm)
Barometer29.78 in29.89 in (8:00 am)29.68 in (3:20 pm)
Wind Speed25 mph38 mph (3:50 pm)
Wind Gust55.2 mph (3:50 pm)
Weather ElementAverage
Visibility18 mi
Wind DirectionWSW (244.3 °)

Weather ElementTotal
Precipitation---
Heating Degree Days23.1 (Base 65)
Averaged from 67 records on January 31, 2013
WEATHER CONDITIONS BREAKOUT
WIND DIRECTION BREAKOUT
WEATHER BY HOUR - JANUARY 31, 2013
[ °C ]   °F
Local TimeTemperatureDewpointHumidityBarometerVisibilityWind DirectionWind SpeedGust SpeedPrecipitationEventsConditions
12:20 AM42.8 °F37.4 °F81 %29.77 inWSW (240°)25.3 mphClear
12:50 AM42.8 °F37.4 °F81 %29.77 inWSW (240°)25.3 mphClear
1:00 AM43.0 °F37.0 °F71 %29.78 in31.0 miWSW (240°)22.4 mphPartly Cloudy
1:20 AM42.8 °F35.6 °F76 %29.77 inWSW (240°)26.5 mph41.4 mphClear
1:50 AM42.8 °F37.4 °F81 %29.80 in6.2 miWest (260°)27.6 mph47.2 mphRainLight Rain Showers
2:00 AM42.0 °F36.0 °F74 %29.82 in31.0 miWest (260°)35.8 mphRainLight Rain Showers
2:20 AM42.8 °F37.4 °F81 %29.80 inWSW (250°)28.8 mphClear
2:50 AM42.8 °F37.4 °F81 %29.80 inWSW (240°)29.9 mphClear
3:00 AM43.0 °F36.0 °F70 %29.81 in31.0 miWSW (240°)29.1 mphRainLight Rain Showers
3:20 AM42.8 °F37.4 °F81 %29.80 inWSW (250°)34.5 mph46.0 mphClear
3:50 AM42.8 °F37.4 °F81 %29.80 inWSW (250°)31.1 mph42.6 mphClear
4:20 AM42.8 °F35.6 °F76 %29.80 inWSW (250°)29.9 mph41.4 mphClear
4:50 AM42.8 °F35.6 °F76 %29.83 inWSW (250°)27.6 mphClear
5:00 AM42.0 °F36.0 °F72 %29.85 in31.0 miWSW (250°)26.8 mph
5:20 AM42.8 °F35.6 °F76 %29.83 inWSW (250°)25.3 mph38.0 mphClear
5:50 AM42.8 °F35.6 °F76 %29.83 inWSW (250°)29.9 mphClear
6:00 AM42.0 °F35.0 °F69 %29.86 in31.0 miWSW (250°)29.1 mph
6:20 AM42.8 °F35.6 °F76 %29.86 inWSW (250°)26.5 mphClear
6:50 AM41.0 °F33.8 °F76 %29.86 inWSW (250°)24.2 mphClear
7:00 AM41.0 °F34.0 °F68 %29.87 in31.0 miWSW (250°)22.4 mphPartly Cloudy
7:20 AM41.0 °F33.8 °F76 %29.86 inWSW (250°)23.0 mphClear
7:50 AM41.0 °F33.8 °F76 %29.86 in6.2 miWSW (240°)21.9 mphPartly Cloudy
8:00 AM40.0 °F34.0 °F71 %29.89 in19.0 miWSW (240°)20.1 mphScattered Clouds
8:20 AM41.0 °F33.8 °F76 %29.86 in6.2 miWSW (240°)20.7 mphPartly Cloudy
8:50 AM41.0 °F33.8 °F76 %29.86 in6.2 miWSW (250°)23.0 mphScattered Clouds
9:00 AM42.0 °F34.0 °F65 %29.89 in25.0 miWSW (240°)17.9 mphScattered Clouds
9:20 AM42.8 °F35.6 °F76 %29.86 inWSW (250°)24.2 mphClear
9:50 AM42.8 °F35.6 °F76 %29.89 inWSW (250°)20.7 mphClear
10:20 AM44.6 °F35.6 °F71 %29.86 inWSW (240°)24.2 mphClear
10:50 AM44.6 °F35.6 °F71 %29.86 inWSW (240°)24.2 mphClear
11:00 AM44.0 °F36.0 °F64 %29.89 in25.0 miWSW (240°)20.1 mphOvercast
11:20 AM44.6 °F35.6 °F71 %29.83 inSW (230°)27.6 mphClear
11:50 AM44.6 °F35.6 °F71 %29.83 inWSW (240°)24.2 mph36.8 mphClear
12:00 PM45.0 °F36.0 °F61 %29.85 in28.0 miWSW (240°)22.4 mphOvercast
12:20 PM44.6 °F35.6 °F71 %29.80 inWSW (240°)24.2 mphClear
12:50 PM46.4 °F33.8 °F62 %29.80 inWSW (240°)29.9 mph46.0 mphClear
1:00 PM46.0 °F35.0 °F54 %29.81 in28.0 miWSW (240°)24.6 mphMostly Cloudy
1:20 PM46.4 °F33.8 °F62 %29.77 inWSW (250°)25.3 mph36.8 mphClear
1:50 PM48.2 °F33.8 °F58 %29.77 inSW (230°)27.6 mph39.1 mphClear
2:00 PM47.0 °F34.0 °F50 %29.78 in28.0 miSW (230°)26.8 mphMostly Cloudy
2:20 PM46.4 °F33.8 °F62 %29.74 inWSW (240°)24.2 mph35.7 mphClear
2:50 PM46.4 °F33.8 °F62 %29.74 in6.2 miWSW (240°)24.2 mphMostly Cloudy
3:00 PM46.0 °F33.0 °F49 %29.75 in28.0 miWSW (240°)24.6 mphScattered Clouds
3:20 PM46.4 °F33.8 °F62 %29.68 in6.2 miSW (230°)31.1 mph43.7 mphMostly Cloudy
3:50 PM44.6 °F35.6 °F71 %29.71 in6.2 miWSW (240°)38.0 mph55.2 mphRainLight Rain
4:20 PM44.6 °F37.4 °F76 %29.71 in6.2 miWSW (250°)31.1 mphMostly Cloudy
4:50 PM44.6 °F35.6 °F71 %29.68 in6.2 miWSW (240°)29.9 mphMostly Cloudy
5:00 PM44.0 °F36.0 °F65 %29.70 in28.0 miWSW (240°)29.1 mphRainLight Rain
5:20 PM44.6 °F35.6 °F71 %29.68 in6.2 miWSW (240°)29.9 mph44.9 mphScattered Clouds
5:50 PM42.8 °F35.6 °F76 %29.68 in6.2 miWSW (240°)33.4 mph46.0 mphScattered Clouds
6:00 PM43.0 °F36.0 °F68 %29.69 in28.0 miWSW (240°)31.3 mphScattered Clouds
6:20 PM42.8 °F35.6 °F76 %29.68 in6.2 miWSW (240°)27.6 mphPartly Cloudy
6:50 PM42.8 °F35.6 °F76 %29.68 inWSW (240°)28.8 mphClear
7:00 PM43.0 °F36.0 °F69 %29.69 in28.0 miWSW (240°)29.1 mphPartly Cloudy
7:20 PM42.8 °F35.6 °F76 %29.68 in6.2 miWSW (240°)29.9 mphScattered Clouds
7:50 PM42.8 °F35.6 °F76 %29.71 in6.2 miWSW (250°)21.9 mphMostly Cloudy
8:00 PM43.0 °F36.0 °F68 %29.73 in31.0 miWest (270°)17.9 mphMostly Cloudy
8:20 PM35.6 °F33.8 °F93 %29.74 in6.2 miWNW (290°)20.7 mphRain-ThunderstormLight Thunderstorms and Rain
8:50 PM37.4 °F33.8 °F87 %29.71 in6.2 miWest (270°)16.1 mphScattered Clouds
9:00 PM37.0 °F34.0 °F84 %29.75 in31.0 miWest (260°)13.4 mphThunderstormLight Thunderstorm
9:20 PM39.2 °F35.6 °F87 %29.71 inWSW (240°)19.6 mphClear
9:50 PM39.2 °F35.6 °F87 %29.71 inWSW (240°)15.0 mphClear
10:20 PM37.4 °F35.6 °F93 %29.71 in6.2 miWSW (240°)12.7 mphMostly Cloudy
10:50 PM39.2 °F35.6 °F87 %29.74 inSW (230°)13.8 mphClear
11:00 PM39.0 °F35.0 °F80 %29.76 in31.0 miSW (230°)13.4 mphScattered Clouds
11:20 PM39.2 °F35.6 °F87 %29.74 inWSW (240°)16.1 mphClear
11:50 PM39.2 °F35.6 °F87 %29.74 inSW (230°)23.0 mphClear
Hourly data recorded from EDDP, located miles away from Leipzig, Germany







STORIES FROM OUR PARTNERS